Location: Unspecified
(58.9933°N, 5.6375°E)
Time: 19:13:11
(UTC+02:00)

CZ-3 Stage 3 - Visible Passes

Search period start: 21 April 2018 00:00
Search period end: 01 May 2018 00:00
Orbit: 435 x 34761 km, 31.0° (Epoch: 20 April)

Date Brightness Start Highest point End Pass type
(mag) Time Alt. Az. Time Alt. Az. Time Alt. Az.
22 Apr 8.8 05:58:59 10° SSE 08:54:03 25° SSE 09:22:09 10° ESE visible
25 Apr 8.8 05:39:19 10° SSE 08:44:14 26° SSE 09:12:54 10° ESE visible
28 Apr 8.8 05:19:49 10° SSE 08:34:23 27° SSE 09:03:36 10° ESE visible
